Location: Clarion
(42.7316°N, 93.7330°W)
Time: 08:56:14
(UTC+00:00)

Cosmos 1346 Rocket - Pass Details

Date: 22 April 2026
Orbit: 472 x 484 km, 81.2° (Epoch: 17 May)

Event Time Altitude Azimuth Distance (km) Brightness Sun altitude
Rises 02:31:27 0° 352° (N) 2,530 6.8 -15.3°
Reaches altitude 10° 02:33:34 10° 356° (N) 1,646 5.8 -15.6°
Maximum altitude 02:37:09 66° 79° (E) 521 2.5 -16.1°
Enters shadow 02:38:30 35° 150° (SSE) 788 3.1 -16.3°
